Change the Weather History Date:

Saturday, March 2, 2013

  Actual Average Record
Temperature  
Mean Temperature 82 °F -  
Max Temperature 87 °F 85 °F 87 °F (1999)
Min Temperature 77 °F 75 °F 71 °F (2011)
Cooling Degree Days 17    
Growing Degree Days 32 (Base 50)    
Moisture  
Dew Point 73 °F    
Average Humidity 75    
Maximum Humidity 83    
Minimum Humidity 54    
Precipitation  
Precipitation 0.00 in 0.02 in - ()
Sea Level Pressure  
Sea Level Pressure 29.85 in    
Wind  
Wind Speed 12 mph ()    
Max Wind Speed 18 mph    
Max Gust Speed -    
Visibility 7.9 miles    
Events      
Averages and records for this station are not official NWS values.
T = Trace of Precipitation, MM = Missing Value Source: Averaged Metar Reports

Daily Weather History Graph

Daily Weather History Graph

Search for Another Location

Airport or City:

Trip Planner

Search our weather history database for the weather conditions in past years. The results will help you decide how hot, cold, wet, or windy it might be!

Date:

Astronomy

Mar. 02, 2013 Rise Set
Actual Time 6:50 AM AST 6:45 PM AST
Civil Twilight 6:29 AM AST 7:06 PM AST
Nautical Twilight 6:04 AM AST 7:31 PM AST
Astronomical Twilight 5:40 AM AST 7:55 PM AST
Moon 11:16 PM AST (3/2) 10:16 AM AST (3/2)
Length of Visible Light 12h 37m
Length of Day
11h 54m
Waning Gibbous, 74% of the Moon is Illuminated
Mar 2
Waning Gibbous
Mar 4
Last Quarter
Mar 11
New
Mar 19
First Quarter
Mar 27
Full

Hourly Weather History & Observations

Time (AST) Temp. Heat Index Dew Point Humidity Pressure Visibility Wind Dir Wind Speed Gust Speed Precip Events Conditions
12:00 AM 78.8 °F - 73.4 °F 83% 29.86 in 6.2 mi ESE 16.1 mph - N/A   Scattered Clouds
1:00 AM 78.8 °F - 73.4 °F 83% 29.83 in 6.2 mi ESE 12.7 mph - N/A   Scattered Clouds
2:00 AM 79 °F - 72 °F 75% 29.83 in 16 mi ESE 12.7 mph - -   Partly Cloudy
2:00 AM 78.8 °F - 73.4 °F 83% 29.83 in 6.2 mi ESE 11.5 mph - N/A   Scattered Clouds
3:00 AM 78.8 °F - 71.6 °F 78% 29.80 in 6.2 mi ESE 12.7 mph - N/A   Scattered Clouds
4:00 AM 78.8 °F - 71.6 °F 78% 29.83 in 6.2 mi ESE 10.4 mph - N/A   Scattered Clouds
5:00 AM 79 °F - 72 °F 73% 29.83 in 16 mi SE 9.2 mph - -   Partly Cloudy
5:00 AM 78.8 °F - 71.6 °F 78% 29.83 in 6.2 mi SE 10.4 mph - N/A   Scattered Clouds
6:00 AM 78.8 °F - 71.6 °F 78% 29.83 in 6.2 mi ESE 10.4 mph - N/A   Scattered Clouds
7:00 AM 77.0 °F - 71.6 °F 83% 29.86 in 6.2 mi ESE 9.2 mph - N/A   Partly Cloudy
8:00 AM 80 °F - 72 °F 71% 29.88 in 16 mi ESE 11.5 mph - -   Partly Cloudy
8:00 AM 80.6 °F 84.6 °F 71.6 °F 74% 29.86 in 6.2 mi ESE 12.7 mph - N/A   Scattered Clouds
9:00 AM 82.4 °F 88.2 °F 73.4 °F 74% 29.89 in 6.2 mi ESE 15.0 mph - N/A   Scattered Clouds
10:00 AM 84.2 °F 89.6 °F 71.6 °F 66% 29.89 in 6.2 mi ESE 16.1 mph - N/A   Scattered Clouds
11:00 AM 87 °F - 73 °F 54% 29.91 in 16 mi ESE 17.3 mph - -   Partly Cloudy
11:00 AM 86.0 °F 91.8 °F 71.6 °F 62% 29.89 in 6.2 mi East 17.3 mph - N/A   Scattered Clouds
12:00 PM 87.8 °F 95.6 °F 73.4 °F 62% 29.89 in 6.2 mi East 15.0 mph - N/A   Scattered Clouds
1:00 PM 87.8 °F 95.6 °F 73.4 °F 62% 29.86 in 6.2 mi East 15.0 mph - N/A   Scattered Clouds
4:00 PM 84.2 °F 92.3 °F 75.2 °F 74% 29.80 in 6.2 mi East 13.8 mph - N/A   Scattered Clouds
5:00 PM 82.4 °F 88.2 °F 73.4 °F 74% 0.27 in 6.2 mi East 16.1 mph - N/A   Partly Cloudy
6:00 PM 80.6 °F 85.4 °F 73.4 °F 79% 29.80 in 6.2 mi East 16.1 mph - N/A   Partly Cloudy
7:00 PM 80.6 °F 85.4 °F 73.4 °F 79% - 6.2 mi East 16.1 mph - N/A   Partly Cloudy
8:00 PM 80.6 °F 85.4 °F 73.4 °F 79% 29.83 in 6.2 mi East 18.4 mph - N/A   Partly Cloudy
9:00 PM 78.8 °F - 73.4 °F 83% 29.86 in 6.2 mi East 15.0 mph - N/A   Partly Cloudy
10:00 PM 78.8 °F - 73.4 °F 83% 29.86 in 6.2 mi East 15.0 mph - N/A   Partly Cloudy
11:00 PM 79 °F - 72 °F 75% 29.89 in 12 mi ESE 11.5 mph - -   Haze
11:00 PM 78.8 °F - 71.6 °F 78% 29.89 in 6.2 mi ESE 11.5 mph - N/A   Partly Cloudy